This is the latest recevied weather packets stored in our database for station/object XE2MEM-21. If no packets are shown the sender has not sent any weather packets the latest 1 day(s).
| Time | Temp. | Humidity | Pressure | Rain* | Wind** | Luminosity | Snow |
|---|---|---|---|---|---|---|---|
| 1778082151 | 30.56° C | 100% | 1004.5 hPa | - | - | - | - |
| 1778080351 | 30° C | 100% | 1004.4 hPa | - | - | - | - |
| 1778075850 | 27.22° C | 100% | 1005 hPa | - | - | - | - |
| 1778074950 | 27.22° C | 100% | 1004.8 hPa | - | - | - | - |
| 1778074050 | 27.22° C | 100% | 1004.8 hPa | - | - | - | - |
| 1778072250 | 27.22° C | 100% | 1004.5 hPa | - | - | - | - |
| 1778071350 | 27.22° C | 100% | 1004.3 hPa | - | - | - | - |
| 1778070450 | 26.67° C | 100% | 1004 hPa | - | - | - | - |
| 1778069550 | 27.22° C | 100% | 1003.6 hPa | - | - | - | - |
| 1778068650 | 26.67° C | 100% | 1003.2 hPa | - | - | - | - |
| 1778061449 | 27.22° C | 100% | 1001.6 hPa | - | - | - | - |
| 1778060549 | 27.22° C | 100% | 1001.7 hPa | - | - | - | - |
| 1778059649 | 27.22° C | 100% | 1002 hPa | - | - | - | - |
| 1778058749 | 27.22° C | 100% | 1002 hPa | - | - | - | - |
| 1778057849 | 27.22° C | 100% | 1002 hPa | - | - | - | - |
| 1778056949 | 27.22° C | 100% | 1002.1 hPa | - | - | - | - |
| 1778052448 | 27.78° C | 100% | 1002.6 hPa | - | - | - | - |
| 1778051548 | 27.78° C | 100% | 1002.8 hPa | - | - | - | - |
| 1778050648 | 27.78° C | 100% | 1003 hPa | - | - | - | - |
| 1778049748 | 27.22° C | 100% | 1003.1 hPa | - | - | - | - |
| 1778048848 | 27.78° C | 100% | 1003.2 hPa | - | - | - | - |
| 1778047948 | 27.78° C | 100% | 1003.4 hPa | - | - | - | - |
| 1778047048 | 27.78° C | 100% | 1003.3 hPa | - | - | - | - |
| 1778046148 | 27.78° C | 100% | 1003.5 hPa | - | - | - | - |
| 1778044347 | 27.78° C | 100% | 1003.8 hPa | - | - | - | - |
* Rain since midnight (hover to see other rain measurements)
** Current wind speed in m/s (hover to see current wind gust speed)